Regional Weather Roundup
Issued by NWS Little Rock, AR

Home | Current Version | Previous Version | Graphics & Text | Print | Product List | Glossary On
Versions: 1 2 3 4 5 6 7 8 9 10 11 12 13 14 15 16 17 18 19 20 21 22 23 24 25 26 27 28 29 30 31 32 33 34 35 36 37 38 39 40 41 42 43 44 45 46 47 48 49 50
502
ASUS44 KLZK 231505
RWRLZK

WEATHER ROUNDUP FOR ARKANSAS
NATIONAL WEATHER SERVICE LITTLE ROCK AR
1000 AM CDT SAT JUL 23 2016

NOTE: "FAIR" INDICATES FEW OR NO CLOUDS BELOW 12,000 FEET WITH NO
SIGNIFICANT WEATHER AND/OR OBSTRUCTIONS TO VISIBILITY.

ARZ001-003-010-029-231600-
NORTHWEST ARKANSAS

CITY           SKY/WX    TMP DP  RH WIND       PRES   REMARKS
FAYETTEVILLE   SUNNY     88  79  74 S6        30.03F HX 103
FORT SMITH     SUNNY     89  74  60 CALM      29.98F HX  98
HARRISON       SUNNY     88  76  67 CALM      30.04F HX  99
BENTONVILLE    SUNNY     88  73  62 W3        30.05S HX  96
ROGERS         SUNNY     88  76  67 W6        30.05S HX  99
SILOAM SPGS    SUNNY     88  70  55 SW5       30.05S HX  92
HIGHFILL       SUNNY     89  77  67 SW7       30.03F HX 101
SPRINGDALE     SUNNY     90  73  58 SW5       30.05F HX  98
$$

ARZ004-005-016-231600-
NORTH CENTRAL ARKANSAS

CITY           SKY/WX    TMP DP  RH WIND       PRES   REMARKS
BATESVILLE     SUNNY     88  77  70 CALM      29.99F HX 100
FLIPPIN        SUNNY     88  75  66 CALM      29.98F HX  97
MTN HOME       SUNNY     87  77  72 CALM      30.01S HX  99
$$

ARZ040-041-231600-
WEST CENTRAL ARKANSAS

CITY           SKY/WX    TMP DP  RH WIND       PRES   REMARKS
MENA           SUNNY     93  77  59 W5        30.03S HX 107
MOUNT IDA      SUNNY     89  76  65 CALM      29.98F HX 100
$$

ARZ009-017-025-026-028-231600-
NORTHEAST ARKANSAS

CITY           SKY/WX    TMP DP  RH WIND       PRES   REMARKS
CORNING          N/A     84  79  84 NE3       29.99F HX  96
JONESBORO      SUNNY     88  77  69 CALM      29.97F HX 100
NEWPORT        SUNNY     88  80  77 NE6       29.99F HX 104
WALNUT RIDGE   SUNNY     86  75  70 N3        29.97F HX  95
BLYTHEVILLE    MOSUNNY   82  75  79 SE8       30.00F HX  89
$$

ARZ022-023-033-042-044-231600-
CENTRAL ARKANSAS

CITY           SKY/WX    TMP DP  RH WIND       PRES   REMARKS
LITTLE ROCK    SUNNY     91  76  61 SW5       29.97F HX 103
N LITTLE ROCK    N/A     89  78  70 CALM      29.94F HX 103
JACKSONVILLE   SUNNY     90  79  69 VRB2      29.97S HX 106
SEARCY         SUNNY     90  79  70 CALM      29.99S HX 106
HOT SPRINGS    SUNNY     90  75  61 VRB3      29.99F HX 100
RUSSELLVILLE   SUNNY     88  77  69 CALM      29.97F HX 100
$$

ARZ036-231600-
EAST ARKANSAS

CITY           SKY/WX    TMP DP  RH WIND       PRES   REMARKS
WEST MEMPHIS   CLOUDY    83  76  79 SE14      29.99R HX  91
$$

ARZ050-053-066-070-073-231600-
SOUTHWEST ARKANSAS

CITY           SKY/WX    TMP DP  RH WIND       PRES   REMARKS
CAMDEN         SUNNY     90  75  62 S5        29.98F HX 100
TEXARKANA      SUNNY     91  74  57 W7        29.99S HX 100
EL DORADO      SUNNY     87  76  69 CALM      30.00S HX  97
DE QUEEN       SUNNY     89  77  67 CALM      29.97S HX 101
$$

ARZ056-057-069-231600-
SOUTHEAST ARKANSAS

CITY           SKY/WX    TMP DP  RH WIND       PRES   REMARKS
PINE BLUFF     SUNNY     87  77  72 S5        29.98F HX  99
STUTTGART      SUNNY     90  79  70 SW6       29.97F HX 105
MONTICELLO     SUNNY     90  77  65 SW3       29.99F HX 103

$$






USA.gov is the U.S. government's official web portal to all federal, state and local government web resources and services.